Location: Chuathbaluk
(61.5726°N, 159.2454°W)
Time: 05:38:48
(UTC+00:00)

Explorer 7 - Pass Details

Date: 08 December 2021
Orbit: 483 x 674 km, 50.3° (Epoch: 25 January)

Event Time Altitude Azimuth Distance (km) Brightness Sun altitude
Exits shadow 15:11:34 11° 155° (SSE) 1,835 9.7 -29.1°
Maximum altitude 15:11:41 11° 154° (SSE) 1,832 9.7 -29.1°
Drops below altitude 10° 15:12:39 10° 140° (SE) 1,863 9.9 -29.0°
Sets 15:16:37 0° 102° (ESE) 2,702 11.5 -28.5°
